Oakland, ME

6:31 AM EST on December 06, 2016 (GMT -0500)
Waterville Lafleur

Weather History for KWVL - December, 2013

Change the Weather History Date:

Sunday, December 8, 2013

  Actual Average Record
Temperature  
Mean Temperature 20 °F -  
Max Temperature 26 °F 36 °F 53 °F (1974)
Min Temperature 15 °F 17 °F -6 °F (1964)
Degree Days  
Heating Degree Days 44    
Moisture  
Dew Point 6 °F    
Average Humidity 52    
Maximum Humidity 74    
Minimum Humidity 37    
Precipitation  
Precipitation 0.00 in - - ()
Sea Level Pressure  
Sea Level Pressure 30.47 in    
Wind  
Wind Speed 6 mph (WNW)    
Max Wind Speed 14 mph    
Max Gust Speed 22 mph    
Visibility 10 miles    
Events      
Averages and records for this station are not official NWS values.
T = Trace of Precipitation, MM = Missing Value Source: NWS Daily Summary

Daily Weather History Graph

Daily Weather History Graph

Search for Another Location

Airport or City:

Trip Planner

Search our weather history database for the weather conditions in past years. The results will help you decide how hot, cold, wet, or windy it might be!

Date:

Astronomy

Dec. 08, 2013 Rise Set
Actual Time 7:02 AM EST 3:58 PM EST
Civil Twilight 6:29 AM EST 4:31 PM EST
Nautical Twilight 5:52 AM EST 5:08 PM EST
Astronomical Twilight 5:17 AM EST 5:43 PM EST
Moon 11:10 AM EST (12/8) 10:56 PM EST (12/8)
Length of Visible Light 10h 02m
Length of Day
8h 56m
Waxing Crescent, 40% of the Moon is Illuminated
Dec 8
Waxing Crescent
Dec 9
First Quarter
Dec 17
Full
Dec 25
Last Quarter
Jan 1
New

Hourly Weather History & Observations

Time (EST) Temp. Windchill Dew Point Humidity Pressure Visibility Wind Dir Wind Speed Gust Speed Precip Events Conditions
12:15 AM 21.2 °F 11.7 °F 6.8 °F 54% 30.35 in 10.0 mi West 8.1 mph - N/A   Clear
12:35 AM 21.2 °F 11.7 °F 6.8 °F 54% 30.36 in 10.0 mi West 8.1 mph - N/A   Clear
12:55 AM 21.2 °F 13.6 °F 6.8 °F 54% 30.36 in 10.0 mi West 5.8 mph - N/A   Clear
1:15 AM 21.2 °F 11.7 °F 6.8 °F 54% 30.36 in 10.0 mi WNW 8.1 mph - N/A   Clear
1:35 AM 21.2 °F 11.7 °F 6.8 °F 54% 30.37 in 10.0 mi West 8.1 mph - N/A   Clear
1:55 AM 21.2 °F - 5.0 °F 50% 30.38 in 10.0 mi Calm Calm - N/A   Clear
2:15 AM 21.2 °F 16.4 °F 6.8 °F 54% 30.38 in 10.0 mi WNW 3.5 mph - N/A   Clear
2:35 AM 21.2 °F 14.9 °F 6.8 °F 54% 30.39 in 10.0 mi WNW 4.6 mph - N/A   Clear
2:55 AM 21.2 °F 14.9 °F 6.8 °F 54% 30.39 in 10.0 mi WNW 4.6 mph - N/A   Clear
3:15 AM 21.2 °F - 6.8 °F 54% 30.39 in 10.0 mi Calm Calm - N/A   Clear
3:35 AM 19.4 °F - 5.0 °F 54% 30.39 in 10.0 mi Calm Calm - N/A   Clear
3:55 AM 19.4 °F - 6.8 °F 58% 30.40 in 10.0 mi Calm Calm - N/A   Clear
4:15 AM 19.4 °F 14.3 °F 6.8 °F 58% 30.41 in 10.0 mi ENE 3.5 mph - N/A   Clear
4:35 AM 17.6 °F - 5.0 °F 58% 30.41 in 10.0 mi Calm Calm - N/A   Clear
4:55 AM 17.6 °F 9.3 °F 6.8 °F 63% 30.42 in 10.0 mi NW 5.8 mph - N/A   Clear
5:15 AM 19.4 °F 7.9 °F 6.8 °F 58% 30.42 in 10.0 mi NW 10.4 mph - N/A   Clear
5:35 AM 21.2 °F 10.1 °F 5.0 °F 50% 30.43 in 10.0 mi WNW 10.4 mph - N/A   Clear
5:55 AM 19.4 °F 11.5 °F 5.0 °F 54% 30.44 in 10.0 mi WNW 5.8 mph - N/A   Clear
6:15 AM 19.4 °F 12.8 °F 5.0 °F 54% 30.46 in 10.0 mi West 4.6 mph - N/A   Clear
6:35 AM 19.4 °F 11.5 °F 3.2 °F 49% 30.46 in 10.0 mi West 5.8 mph - N/A   Clear
6:55 AM 19.4 °F 10.4 °F 3.2 °F 49% 30.48 in 10.0 mi West 6.9 mph - N/A   Clear
7:15 AM 19.4 °F 10.4 °F 3.2 °F 49% 30.47 in 10.0 mi West 6.9 mph - N/A   Clear
7:35 AM 19.4 °F 11.5 °F 3.2 °F 49% 30.48 in 10.0 mi West 5.8 mph - N/A   Clear
7:55 AM 19.4 °F 10.4 °F 3.2 °F 49% 30.49 in 10.0 mi West 6.9 mph - N/A   Clear
8:15 AM 19.4 °F 12.8 °F 5.0 °F 54% 30.49 in 10.0 mi West 4.6 mph - N/A   Clear
8:35 AM 21.2 °F 11.7 °F 3.2 °F 46% 30.51 in 10.0 mi West 8.1 mph - N/A   Clear
8:55 AM 21.2 °F 12.6 °F 3.2 °F 46% 30.50 in 10.0 mi West 6.9 mph - N/A   Clear
9:15 AM 21.2 °F 12.6 °F 3.2 °F 46% 30.50 in 10.0 mi NW 6.9 mph - N/A   Clear
9:35 AM 21.2 °F 10.9 °F 3.2 °F 46% 30.50 in 10.0 mi WNW 9.2 mph - N/A   Clear
9:55 AM 23.0 °F 13.1 °F 3.2 °F 43% 30.50 in 10.0 mi WNW 9.2 mph 17.3 mph N/A   Clear
10:15 AM 23.0 °F 12.4 °F 3.2 °F 43% 30.50 in 10.0 mi WNW 10.4 mph - N/A   Clear
10:35 AM 23.0 °F 12.4 °F 3.2 °F 43% 30.51 in 10.0 mi WNW 10.4 mph - N/A   Clear
10:55 AM 23.0 °F 11.1 °F 3.2 °F 43% 30.51 in 10.0 mi WNW 12.7 mph 16.1 mph N/A   Clear
11:15 AM 24.8 °F 13.4 °F 3.2 °F 40% 30.49 in 10.0 mi NW 12.7 mph 20.7 mph N/A   Clear
11:35 AM 24.8 °F 15.3 °F 3.2 °F 40% 30.49 in 10.0 mi NW 9.2 mph 16.1 mph N/A   Clear
11:55 AM 24.8 °F 14.6 °F 3.2 °F 40% 30.49 in 10.0 mi WNW 10.4 mph - N/A   Clear
12:15 PM 24.8 °F 14.6 °F 3.2 °F 40% 30.48 in 10.0 mi WNW 10.4 mph 19.6 mph N/A   Clear
12:35 PM 24.8 °F 14.6 °F 3.2 °F 40% 30.47 in 10.0 mi WNW 10.4 mph 21.9 mph N/A   Clear
12:55 PM 24.8 °F 14.6 °F 3.2 °F 40% 30.48 in 10.0 mi WNW 10.4 mph - N/A   Clear
1:15 PM 24.8 °F 14.0 °F 3.2 °F 40% 30.48 in 10.0 mi WNW 11.5 mph 16.1 mph N/A   Clear
1:35 PM 24.8 °F 16.9 °F 5.0 °F 43% 30.47 in 10.0 mi WNW 6.9 mph - N/A   Clear
1:55 PM 24.8 °F 16.1 °F 5.0 °F 43% 30.48 in 10.0 mi West 8.1 mph - N/A   Clear
2:15 PM 24.8 °F 12.9 °F 5.0 °F 43% 30.47 in 10.0 mi WNW 13.8 mph 17.3 mph N/A   Clear
2:35 PM 26.6 °F 16.2 °F 5.0 °F 40% 30.47 in 10.0 mi NW 11.5 mph 20.7 mph N/A   Clear
2:55 PM 26.6 °F 15.2 °F 5.0 °F 40% 30.48 in 10.0 mi NW 13.8 mph - N/A   Clear
3:15 PM 26.6 °F 17.5 °F 5.0 °F 40% 30.48 in 10.0 mi NW 9.2 mph - N/A   Clear
3:35 PM 26.6 °F 18.2 °F 3.2 °F 37% 30.47 in 10.0 mi NW 8.1 mph - N/A   Clear
3:55 PM 24.8 °F 16.9 °F 3.2 °F 40% 30.49 in 10.0 mi WNW 6.9 mph - N/A   Clear
4:15 PM 24.8 °F 17.9 °F 3.2 °F 40% 30.50 in 10.0 mi West 5.8 mph - N/A   Clear
4:35 PM 23.0 °F 14.7 °F 3.2 °F 43% 30.50 in 10.0 mi WNW 6.9 mph - N/A   Clear
4:55 PM 23.0 °F 18.4 °F 3.2 °F 43% 30.51 in 10.0 mi WNW 3.5 mph - N/A   Clear
5:15 PM 21.2 °F - 3.2 °F 46% 30.51 in 10.0 mi Calm Calm - N/A   Clear
5:35 PM 19.4 °F 12.8 °F 5.0 °F 54% 30.51 in 10.0 mi NW 4.6 mph - N/A   Clear
5:55 PM 21.2 °F - 6.8 °F 54% 30.52 in 10.0 mi Calm Calm - N/A   Clear
6:15 PM 21.2 °F 13.6 °F 6.8 °F 54% 30.52 in 10.0 mi WNW 5.8 mph - N/A   Clear
6:35 PM 19.4 °F - 3.2 °F 49% 30.53 in 10.0 mi Calm Calm - N/A   Clear
6:55 PM 19.4 °F 14.3 °F 6.8 °F 58% 30.53 in 10.0 mi WNW 3.5 mph - N/A   Clear
7:15 PM 19.4 °F 12.8 °F 5.0 °F 54% 30.52 in 10.0 mi East 4.6 mph - N/A   Clear
7:35 PM 17.6 °F 12.3 °F 8.6 °F 68% 30.53 in 10.0 mi North 3.5 mph - N/A   Clear
7:55 PM 15.8 °F 10.2 °F 8.6 °F 73% 30.51 in 10.0 mi NNE 3.5 mph - N/A   Clear
8:15 PM 17.6 °F 12.3 °F 8.6 °F 68% 30.50 in 10.0 mi NNE 3.5 mph - N/A   Clear
8:35 PM 17.6 °F - 10.4 °F 73% 30.52 in 10.0 mi Calm Calm - N/A   Clear
8:55 PM 19.4 °F 12.8 °F 10.4 °F 68% 30.53 in 10.0 mi North 4.6 mph - N/A   Clear
9:15 PM 19.4 °F - 10.4 °F 68% 30.54 in 10.0 mi Calm Calm - N/A   Scattered Clouds
9:35 PM 19.4 °F - 8.6 °F 63% 30.55 in 10.0 mi Calm Calm - N/A   Mostly Cloudy
9:55 PM 19.4 °F - 10.4 °F 68% 30.54 in 10.0 mi Calm Calm - N/A   Mostly Cloudy
10:15 PM 19.4 °F - 12.2 °F 74% 30.54 in 10.0 mi Calm Calm - N/A   Scattered Clouds
10:35 PM 19.4 °F - 8.6 °F 63% 30.54 in 10.0 mi Calm Calm - N/A   Scattered Clouds
10:55 PM 19.4 °F - 8.6 °F 63% 30.53 in 10.0 mi Calm Calm - N/A   Mostly Cloudy
11:15 PM 19.4 °F 14.3 °F 8.6 °F 63% 30.53 in 10.0 mi NE 3.5 mph - N/A   Partly Cloudy
11:35 PM 19.4 °F 14.3 °F 8.6 °F 63% 30.52 in 10.0 mi NE 3.5 mph - N/A   Clear
11:55 PM 19.4 °F 14.3 °F 8.6 °F 63% 30.52 in 10.0 mi NE 3.5 mph - N/A   Clear